Weather History for Centralia, IL

Change the Weather History Date:

Wednesday, January 29, 2014

  Actual Average (KSLO) Record (KSLO)
Temperature  
Mean Temperature 18 °F -  
Max Temperature 30 °F 40 °F 69 °F (2002)
Min Temperature 5 °F 21 °F -7 °F (1977)
Degree Days  
Heating Degree Days 48    
Moisture  
Dew Point 2 °F    
Average Humidity 49    
Maximum Humidity 70    
Minimum Humidity 29    
Precipitation  
Precipitation 0.00 in - - ()
Sea Level Pressure  
Sea Level Pressure 30.30 in    
Wind  
Wind Speed 9 mph (South)    
Max Wind Speed 17 mph    
Max Gust Speed 22 mph    
Visibility 10 miles    
Events      
Averages and records for this station are not official NWS values.
T = Trace of Precipitation, MM = Missing Value Source: NWS Daily Summary

Daily Weather History Graph

Daily Weather History Graph

Search for Another Location

Airport:

Trip Planner

Search our weather history database for the weather conditions in past years. The results will help you decide how hot, cold, wet, or windy it might be!

Date:

Astronomy

Jan. 29, 2014 Rise Set
Actual Time 7:04 AM CST 5:15 PM CST
Civil Twilight 6:36 AM CST 5:43 PM CST
Nautical Twilight 6:04 AM CST 6:15 PM CST
Astronomical Twilight 5:33 AM CST 6:46 PM CST
Moon 5:40 AM CST (1/29) 4:14 PM CST (1/29)
Length of Visible Light 11h 07m
Length of Day
10h 10m
Waning Crescent, 2% of the Moon is Illuminated
Jan 29
Waning Crescent
Jan 30
New
Feb 6
First Quarter
Feb 14
Full
Feb 22
Last Quarter

Hourly Weather History & Observations

Time (CST) Temp. Windchill Dew Point Humidity Pressure Visibility Wind Dir Wind Speed Gust Speed Precip Events Conditions
12:15 AM 5.9 °F -3.0 °F -1.8 °F 70% 30.38 in 10.0 mi South 4.6 mph - N/A   Clear
12:35 AM 6.4 °F -3.9 °F -1.8 °F 69% 30.38 in 10.0 mi South 5.8 mph - N/A   Clear
12:55 AM 6.4 °F -2.4 °F -2.2 °F 68% 30.38 in 10.0 mi South 4.6 mph - N/A   Clear
1:15 AM 6.6 °F -2.2 °F -2.0 °F 68% 30.37 in 10.0 mi South 4.6 mph - N/A   Clear
1:35 AM 6.3 °F -0.7 °F -2.9 °F 66% 30.37 in 10.0 mi South 3.5 mph - N/A   Clear
1:55 AM 6.8 °F -3.5 °F -2.4 °F 66% 30.36 in 10.0 mi SSW 5.8 mph - N/A   Clear
2:15 AM 7.5 °F -2.6 °F -2.2 °F 65% 30.36 in 10.0 mi SSW 5.8 mph - N/A   Clear
2:35 AM 7.7 °F -2.4 °F -2.2 °F 64% 30.37 in 10.0 mi South 5.8 mph - N/A   Clear
2:55 AM 8.1 °F -4.3 °F -1.7 °F 65% 30.36 in 10.0 mi South 8.1 mph - N/A   Clear
3:15 AM 8.1 °F -4.3 °F -1.5 °F 65% 30.36 in 10.0 mi South 8.1 mph - N/A   Clear
3:35 AM 8.6 °F -5.5 °F -1.5 °F 64% 30.35 in 10.0 mi South 10.4 mph - N/A   Clear
3:55 AM 8.2 °F -3.0 °F -1.8 °F 64% 30.35 in 10.0 mi South 6.9 mph - N/A   Clear
4:15 AM 8.6 °F -2.6 °F -2.2 °F 62% 30.34 in 10.0 mi SSW 6.9 mph - N/A   Clear
4:35 AM 8.6 °F -2.6 °F -2.2 °F 62% 30.34 in 10.0 mi SSW 6.9 mph - N/A   Clear
4:55 AM 8.8 °F -2.4 °F -2.4 °F 61% 30.34 in 10.0 mi SSW 6.9 mph - N/A   Clear
5:15 AM 8.1 °F -3.2 °F -2.2 °F 63% 30.34 in 10.0 mi South 6.9 mph - N/A   Clear
5:35 AM 8.2 °F -1.8 °F -2.4 °F 62% 30.34 in 10.0 mi SSW 5.8 mph - N/A   Clear
5:55 AM 8.6 °F -3.7 °F -2.4 °F 61% 30.34 in 10.0 mi SSW 8.1 mph - N/A   Clear
6:15 AM 8.6 °F -5.5 °F -2.2 °F 62% 30.34 in 10.0 mi SSW 10.4 mph - N/A   Clear
6:35 AM 9.3 °F -5.4 °F -2.2 °F 60% 30.35 in 10.0 mi SSW 11.5 mph - N/A   Clear
6:55 AM 9.5 °F -3.5 °F -2.2 °F 59% 30.35 in 10.0 mi SSW 9.2 mph - N/A   Clear
7:15 AM 9.7 °F -4.2 °F -2.4 °F 58% 30.35 in 10.0 mi SSW 10.4 mph - N/A   Clear
7:35 AM 10.8 °F -2.0 °F -1.8 °F 57% 30.36 in 10.0 mi SSW 9.2 mph - N/A   Clear
7:55 AM 12.2 °F -1.8 °F -1.1 °F 55% 30.36 in 10.0 mi SSW 11.5 mph - N/A   Clear
8:15 AM 13.5 °F -0.2 °F -0.4 °F 54% 30.36 in 10.0 mi SSW 11.5 mph - N/A   Clear
8:35 AM 14.9 °F 2.3 °F 0.7 °F 53% 30.36 in 10.0 mi SW 10.4 mph - N/A   Clear
8:55 AM 16.9 °F 4.8 °F 1.0 °F 50% 30.36 in 10.0 mi SSW 10.4 mph - N/A   Clear
9:15 AM 18.5 °F 6.8 °F 1.0 °F 47% 30.36 in 10.0 mi SSW 10.4 mph - N/A   Clear
9:35 AM 19.8 °F 8.3 °F 1.6 °F 45% 30.36 in 10.0 mi SSW 10.4 mph - N/A   Clear
9:55 AM 21.7 °F 10.2 °F 2.7 °F 44% 30.36 in 10.0 mi SW 11.5 mph - N/A   Clear
10:15 AM 23.2 °F 12.0 °F 2.8 °F 42% 30.36 in 10.0 mi SW 11.5 mph 16.1 mph N/A   Clear
10:35 AM 24.3 °F 13.3 °F 2.7 °F 39% 30.36 in 10.0 mi SSW 11.5 mph - N/A   Clear
10:55 AM 24.4 °F 14.2 °F 2.8 °F 39% 30.36 in 10.0 mi SSW 10.4 mph - N/A   Clear
11:15 AM 25.5 °F 14.9 °F 2.3 °F 37% 30.35 in 10.0 mi SSW 11.5 mph - N/A   Clear
11:35 AM 26.6 °F 17.5 °F 3.0 °F 36% 30.34 in 10.0 mi SSW 9.2 mph - N/A   Clear
11:55 AM 27.5 °F 17.4 °F 2.8 °F 35% 30.33 in 10.0 mi South 11.5 mph - N/A   Clear
12:15 PM 27.7 °F 17.6 °F 1.6 °F 33% 30.33 in 10.0 mi SW 11.5 mph 17.3 mph N/A   Clear
12:35 PM 28.6 °F 18.7 °F 1.8 °F 32% 30.32 in 10.0 mi WSW 11.5 mph 17.3 mph N/A   Clear
12:55 PM 28.9 °F 20.4 °F 1.8 °F 31% 30.31 in 10.0 mi WSW 9.2 mph 19.6 mph N/A   Clear
1:15 PM 29.5 °F 18.4 °F 1.8 °F 31% 30.30 in 10.0 mi WSW 15.0 mph - N/A   Clear
1:35 PM 29.8 °F 21.5 °F 2.5 °F 31% 30.30 in 10.0 mi SSW 9.2 mph 18.4 mph N/A   Clear
1:55 PM 29.8 °F 20.9 °F 2.1 °F 31% 30.30 in 10.0 mi SW 10.4 mph 20.7 mph N/A   Clear
2:15 PM 30.4 °F 21.0 °F 1.6 °F 29% 30.29 in 10.0 mi SSW 11.5 mph 19.6 mph N/A   Clear
2:35 PM 30.2 °F 19.3 °F 2.3 °F 31% 30.28 in 10.0 mi South 15.0 mph 18.4 mph N/A   Clear
2:55 PM 30.4 °F 19.5 °F 2.1 °F 30% 30.28 in 10.0 mi SSW 15.0 mph 19.6 mph N/A   Clear
3:15 PM 30.2 °F 20.2 °F 3.0 °F 32% 30.28 in 10.0 mi SSW 12.7 mph 21.9 mph N/A   Clear
3:35 PM 30.4 °F 18.7 °F 3.6 °F 32% 30.27 in 10.0 mi South 17.3 mph 21.9 mph N/A   Clear
3:55 PM 30.2 °F 20.2 °F 3.0 °F 32% 30.26 in 10.0 mi South 12.7 mph 18.4 mph N/A   Clear
4:15 PM 29.8 °F 18.4 °F 3.0 °F 32% 30.25 in 10.0 mi South 16.1 mph 20.7 mph N/A   Clear
4:35 PM 29.3 °F 19.1 °F 2.8 °F 32% 30.25 in 10.0 mi SSW 12.7 mph - N/A   Clear
4:55 PM 28.4 °F 20.4 °F 3.0 °F 34% 30.25 in 10.0 mi South 8.1 mph - N/A   Clear
5:15 PM 26.4 °F 18.0 °F 5.0 °F 40% 30.25 in 10.0 mi South 8.1 mph - N/A   Clear
5:35 PM 24.6 °F 15.8 °F 5.2 °F 44% 30.25 in 10.0 mi SSE 8.1 mph - N/A   Clear
5:55 PM 24.1 °F 14.4 °F 5.0 °F 44% 30.24 in 10.0 mi SSE 9.2 mph - N/A   Clear
6:15 PM 23.0 °F 13.9 °F 5.7 °F 48% 30.24 in 10.0 mi SSE 8.1 mph - N/A   Clear
6:35 PM 22.8 °F 12.9 °F 6.4 °F 50% 30.25 in 10.0 mi SSE 9.2 mph - N/A   Clear
6:55 PM 23.5 °F 13.7 °F 5.9 °F 47% 30.23 in 10.0 mi SSE 9.2 mph - N/A   Clear
7:15 PM 23.5 °F 13.0 °F 5.9 °F 47% 30.23 in 10.0 mi SSE 10.4 mph - N/A   Clear
7:35 PM 23.7 °F 13.3 °F 5.7 °F 46% 30.22 in 10.0 mi SSE 10.4 mph - N/A   Clear
7:55 PM 23.2 °F 12.0 °F 6.3 °F 48% 30.22 in 10.0 mi SSE 11.5 mph - N/A   Clear
8:15 PM 23.5 °F 11.3 °F 6.4 °F 48% 30.22 in 10.0 mi SSE 13.8 mph - N/A   Clear
8:35 PM 23.0 °F 10.6 °F 6.6 °F 50% 30.22 in 10.0 mi South 13.8 mph 19.6 mph N/A   Clear
8:55 PM 23.0 °F 10.6 °F 6.3 °F 49% 30.21 in 10.0 mi South 13.8 mph - N/A   Clear
9:15 PM 22.6 °F 10.1 °F 6.6 °F 50% 30.21 in 10.0 mi SSE 13.8 mph - N/A   Clear
9:35 PM 22.1 °F 10.6 °F 6.8 °F 52% 30.20 in 10.0 mi SSE 11.5 mph - N/A   Clear
9:55 PM 22.1 °F 10.6 °F 6.8 °F 52% 30.20 in 10.0 mi South 11.5 mph - N/A   Clear
10:15 PM 21.9 °F 9.8 °F 6.6 °F 52% 30.20 in 10.0 mi SSE 12.7 mph - N/A   Clear
10:35 PM 21.9 °F 9.8 °F 6.6 °F 52% 30.19 in 10.0 mi SSE 12.7 mph - N/A   Clear
10:55 PM 21.7 °F 9.0 °F 6.6 °F 52% 30.19 in 10.0 mi South 13.8 mph - N/A   Clear
11:15 PM 21.6 °F 8.8 °F 6.4 °F 52% 30.17 in 10.0 mi SSE 13.8 mph - N/A   Clear
11:35 PM 21.2 °F 8.3 °F 6.4 °F 53% 30.18 in 10.0 mi South 13.8 mph - N/A   Clear
11:55 PM 21.0 °F 9.3 °F 6.4 °F 53% 30.17 in 10.0 mi South 11.5 mph - N/A   Clear